^^
Datos históricos de la estación: Murcia-Puente Tocinos
Diario Informe para Febrero 4, 2019 Unidades:  Métrico    Inglés   Ambas
Diario Semanal Mensual Anual Configurable
  Máximo: Mínimo: Media:
Temperatura: 17.9 °C 7.2 °C 11.2 °C
Punto de rocio: 3.7 °C -5.7 °C -2.7 °C
Humedad: 68% 20% 39%
Velocidad viento: 27.4km/h 0.0km/h 10km/h
Racha viento: 48.3km/h - -
Viento- - WSW
Presión: 1027.4 hPa 1024.1 hPa -
Precipitación: 0.0 mm    
Historical Graphs
 
 
Tabla de datos para Febrero 4, 2019
Hora Temperatura Punto de rocio Presión Viento Velocidad viento Racha viento Humedad Intensidad lluvia(por hora) Nubes
00:05 9.8 °C -4.2 °C 1024.9 hPa WNW 13.7 km/h 24.1 km/h 37% 0.0 mm CLR
00:09 9.8 °C -4.2 °C 1024.9 hPa NW 17.2 km/h 27.8 km/h 37% 0.0 mm CLR
00:14 9.8 °C -4.2 °C 1024.9 hPa WNW 17.2 km/h 18.5 km/h 37% 0.0 mm CLR
00:20 9.7 °C -4.3 °C 1025.3 hPa WNW 14.5 km/h 20.9 km/h 37% 0.0 mm CLR
00:25 9.7 °C -4.3 °C 1025.3 hPa WNW 14.5 km/h 12.9 km/h 37% 0.0 mm CLR
00:30 9.7 °C -4.3 °C 1025.3 hPa WNW 8.0 km/h 16.1 km/h 37% 0.0 mm CLR
00:35 9.7 °C -3.9 °C 1025.5 hPa WNW 8.0 km/h 9.7 km/h 38% 0.0 mm CLR
00:40 9.6 °C -4.1 °C 1025.5 hPa WNW 4.7 km/h 3.7 km/h 38% 0.0 mm CLR
00:44 9.5 °C -4.1 °C 1025.5 hPa WNW 4.7 km/h 7.6 km/h 38% 0.0 mm CLR
00:50 9.5 °C -4.1 °C 1025.6 hPa WNW 3.2 km/h 12.9 km/h 38% 0.0 mm CLR
00:55 9.4 °C -4.2 °C 1025.6 hPa West 4.7 km/h 16.7 km/h 38% 0.0 mm CLR
00:59 9.3 °C -3.9 °C 1025.6 hPa West 8.7 km/h 14.8 km/h 39% 0.0 mm CLR
01:05 9.2 °C -4.1 °C 1025.6 hPa West 9.7 km/h 19.3 km/h 39% 0.0 mm CLR
01:09 9.1 °C -4.2 °C 1025.6 hPa West 11.1 km/h 18.5 km/h 39% 0.0 mm CLR
01:15 9.1 °C -3.8 °C 1025.6 hPa West 11.1 km/h 16.7 km/h 40% 0.0 mm CLR
01:19 9.1 °C -3.8 °C 1025.8 hPa West 11.9 km/h 13.0 km/h 40% 0.0 mm CLR
01:24 8.9 °C -4.0 °C 1025.8 hPa WSW 11.9 km/h 14.8 km/h 40% 0.0 mm CLR
01:30 8.9 °C -4.0 °C 1025.8 hPa West 11.3 km/h 24.1 km/h 40% 0.0 mm CLR
01:35 9.1 °C -3.8 °C 1025.6 hPa NW 10.3 km/h 24.1 km/h 40% 0.0 mm CLR
01:39 9.1 °C -3.8 °C 1025.6 hPa WNW 14.8 km/h 29.6 km/h 40% 0.0 mm CLR
01:45 9.1 °C -3.8 °C 1025.6 hPa WNW 14.5 km/h 27.4 km/h 40% 0.0 mm CLR
01:49 9.1 °C -3.8 °C 1025.4 hPa WNW 19.0 km/h 25.9 km/h 40% 0.0 mm CLR
01:55 9.1 °C -3.8 °C 1025.4 hPa WNW 19.3 km/h 29.0 km/h 40% 0.0 mm CLR
02:00 9.1 °C -3.8 °C 1025.4 hPa WNW 14.5 km/h 24.1 km/h 40% 0.0 mm CLR
02:05 9.1 °C -3.8 °C 1025.5 hPa WNW 14.5 km/h 24.1 km/h 40% 0.0 mm CLR
02:10 9.0 °C -3.9 °C 1025.5 hPa WNW 12.9 km/h 17.7 km/h 40% 0.0 mm CLR
02:15 8.9 °C -4.0 °C 1025.5 hPa West 12.9 km/h 22.5 km/h 40% 0.0 mm CLR
02:19 8.8 °C -3.8 °C 1025.6 hPa WNW 10.0 km/h 16.7 km/h 41% 0.0 mm CLR
02:25 8.7 °C -3.8 °C 1025.6 hPa West 9.7 km/h 19.3 km/h 41% 0.0 mm CLR
02:29 8.7 °C -3.8 °C 1025.6 hPa WNW 11.9 km/h 22.2 km/h 41% 0.0 mm CLR
02:34 8.6 °C -3.9 °C 1025.5 hPa West 11.9 km/h 14.8 km/h 41% 0.0 mm CLR
02:39 8.6 °C -3.9 °C 1025.5 hPa WNW 14.0 km/h 22.2 km/h 41% 0.0 mm CLR
02:45 8.7 °C -3.8 °C 1025.5 hPa West 14.0 km/h 24.1 km/h 41% 0.0 mm CLR
02:49 8.8 °C -3.8 °C 1025.4 hPa WNW 16.4 km/h 25.9 km/h 41% 0.0 mm CLR
02:55 8.8 °C -3.7 °C 1025.4 hPa WNW 16.1 km/h 25.7 km/h 41% 0.0 mm CLR
02:59 8.8 °C -3.8 °C 1025.4 hPa NNW 15.6 km/h 16.7 km/h 41% 0.0 mm CLR
03:05 8.8 °C -3.8 °C 1025.6 hPa WNW 14.5 km/h 24.1 km/h 41% 0.0 mm CLR
03:10 8.7 °C -3.8 °C 1025.6 hPa WNW 12.9 km/h 25.7 km/h 41% 0.0 mm CLR
03:14 8.7 °C -3.8 °C 1025.6 hPa WSW 13.0 km/h 20.4 km/h 41% 0.0 mm CLR
03:20 8.7 °C -3.8 °C 1025.7 hPa WNW 14.5 km/h 22.5 km/h 41% 0.0 mm CLR
03:24 8.7 °C -3.5 °C 1025.7 hPa NW 14.0 km/h 27.8 km/h 42% 0.0 mm CLR
03:29 8.7 °C -3.5 °C 1025.7 hPa WNW 15.6 km/h 27.8 km/h 42% 0.0 mm CLR
03:34 8.7 °C -3.5 °C 1025.5 hPa North 15.6 km/h 25.9 km/h 42% 0.0 mm CLR
03:40 8.8 °C -3.4 °C 1025.5 hPa WNW 16.1 km/h 29.0 km/h 42% 0.0 mm CLR
03:45 8.7 °C -3.5 °C 1025.5 hPa West 16.4 km/h 29.6 km/h 42% 0.0 mm CLR
03:49 8.7 °C -3.5 °C 1025.7 hPa WNW 13.7 km/h 24.5 km/h 42% 0.0 mm CLR
03:55 8.7 °C -3.5 °C 1025.7 hPa WNW 13.7 km/h 28.2 km/h 42% 0.0 mm CLR
04:00 8.7 °C -3.2 °C 1025.7 hPa West 14.5 km/h 29.0 km/h 43% 0.0 mm CLR
04:04 8.6 °C -3.3 °C 1025.9 hPa WNW 14.8 km/h 24.1 km/h 43% 0.0 mm CLR
04:10 8.6 °C -3.3 °C 1025.9 hPa NW 14.8 km/h 27.8 km/h 43% 0.0 mm CLR
04:15 8.5 °C -3.4 °C 1025.9 hPa West 14.5 km/h 29.0 km/h 43% 0.0 mm CLR
04:20 8.4 °C -3.2 °C 1025.6 hPa West 14.5 km/h 35.4 km/h 44% 0.0 mm CLR
04:25 8.4 °C -3.2 °C 1025.6 hPa WNW 14.5 km/h 35.4 km/h 44% 0.0 mm CLR
04:29 8.3 °C -3.3 °C 1025.6 hPa West 19.0 km/h 38.9 km/h 44% 0.0 mm CLR
04:35 8.2 °C -3.3 °C 1025.8 hPa WNW 19.3 km/h 33.8 km/h 44% 0.0 mm CLR
04:39 8.2 °C -3.3 °C 1025.8 hPa WNW 18.0 km/h 25.9 km/h 44% 0.0 mm CLR
04:45 8.2 °C -3.3 °C 1025.8 hPa WNW 19.3 km/h 37.0 km/h 44% 0.0 mm CLR
04:50 8.3 °C -3.3 °C 1026.2 hPa WNW 20.9 km/h 35.4 km/h 44% 0.0 mm CLR
04:55 8.3 °C -3.3 °C 1026.2 hPa WNW 20.9 km/h 37.0 km/h 44% 0.0 mm CLR
05:00 8.3 °C -3.3 °C 1026.2 hPa WNW 19.3 km/h 40.2 km/h 44% 0.0 mm CLR
05:05 8.3 °C -3.3 °C 1026.0 hPa WNW 19.3 km/h 48.3 km/h 44% 0.0 mm CLR
05:10 8.3 °C -3.3 °C 1026.0 hPa WNW 27.4 km/h 46.7 km/h 44% 0.0 mm CLR
05:15 8.2 °C -3.1 °C 1026.0 hPa WNW 27.4 km/h 40.2 km/h 45% 0.0 mm CLR
05:20 8.1 °C -3.1 °C 1025.9 hPa WNW 25.7 km/h 41.8 km/h 45% 0.0 mm CLR
05:25 8.0 °C -3.2 °C 1025.9 hPa WNW 26.2 km/h 28.6 km/h 45% 0.0 mm CLR
05:30 7.9 °C -3.0 °C 1025.9 hPa WNW 20.1 km/h 35.2 km/h 46% 0.0 mm CLR
05:35 7.8 °C -3.1 °C 1025.9 hPa WNW 20.9 km/h 27.4 km/h 46% 0.0 mm CLR
05:40 7.8 °C -3.1 °C 1025.9 hPa WNW 19.3 km/h 33.8 km/h 46% 0.0 mm CLR
05:45 7.8 °C -3.1 °C 1025.9 hPa WNW 19.3 km/h 32.2 km/h 46% 0.0 mm CLR
05:49 7.8 °C -3.1 °C 1025.6 hPa NW 18.0 km/h 20.4 km/h 46% 0.0 mm CLR
05:55 7.7 °C -3.2 °C 1025.6 hPa WNW 18.0 km/h 18.5 km/h 46% 0.0 mm CLR
06:00 7.7 °C -3.2 °C 1025.6 hPa WNW 16.1 km/h 24.1 km/h 46% 0.0 mm CLR
06:04 7.7 °C -3.2 °C 1025.6 hPa WSW 16.4 km/h 14.8 km/h 46% 0.0 mm CLR
06:10 7.7 °C -3.2 °C 1025.6 hPa West 9.7 km/h 14.5 km/h 46% 0.0 mm CLR
06:15 7.6 °C -3.3 °C 1025.6 hPa West 9.7 km/h 12.9 km/h 46% 0.0 mm CLR
06:20 7.6 °C -3.3 °C 1025.7 hPa West 7.6 km/h 14.8 km/h 46% 0.0 mm CLR
06:25 7.6 °C -3.6 °C 1025.7 hPa WSW 8.0 km/h 19.3 km/h 45% 0.0 mm CLR
06:30 7.7 °C -3.5 °C 1025.7 hPa WSW 9.7 km/h 12.9 km/h 45% 0.0 mm CLR
06:35 7.8 °C -3.4 °C 1025.7 hPa WSW 9.7 km/h 9.7 km/h 45% 0.0 mm CLR
06:40 7.7 °C -3.5 °C 1025.7 hPa West 4.8 km/h 16.1 km/h 45% 0.0 mm CLR
06:45 7.7 °C -3.8 °C 1025.7 hPa WSW 5.8 km/h 13.0 km/h 44% 0.0 mm CLR
06:50 7.8 °C -3.7 °C 1025.6 hPa WNW 10.0 km/h 16.7 km/h 44% 0.0 mm CLR
06:55 7.8 °C -3.7 °C 1025.6 hPa West 9.7 km/h 16.1 km/h 44% 0.0 mm CLR
06:59 7.7 °C -3.5 °C 1025.6 hPa West 8.7 km/h 16.7 km/h 45% 0.0 mm CLR
07:05 7.6 °C -3.6 °C 1025.8 hPa West 9.7 km/h 16.1 km/h 45% 0.0 mm CLR
07:09 7.7 °C -3.8 °C 1025.8 hPa West 10.3 km/h 29.6 km/h 44% 0.0 mm CLR
07:14 7.8 °C -3.7 °C 1025.8 hPa WNW 10.3 km/h 25.9 km/h 44% 0.0 mm CLR
07:20 7.7 °C -3.5 °C 1026.0 hPa WNW 14.8 km/h 22.2 km/h 45% 0.0 mm CLR
07:24 7.5 °C -3.7 °C 1026.0 hPa WNW 14.8 km/h 20.4 km/h 45% 0.0 mm CLR
07:30 7.4 °C -3.5 °C 1026.0 hPa WNW 12.9 km/h 20.9 km/h 46% 0.0 mm CLR
07:35 7.3 °C -3.6 °C 1026.2 hPa WNW 12.9 km/h 19.3 km/h 46% 0.0 mm CLR
07:40 7.3 °C -3.6 °C 1026.2 hPa West 11.3 km/h 19.3 km/h 46% 0.0 mm CLR
07:45 7.3 °C -3.6 °C 1026.2 hPa West 11.3 km/h 29.0 km/h 46% 0.0 mm CLR
07:50 7.4 °C -3.8 °C 1026.5 hPa West 11.9 km/h 27.8 km/h 45% 0.0 mm CLR
07:54 7.7 °C -3.5 °C 1026.5 hPa West 11.9 km/h 16.7 km/h 45% 0.0 mm CLR
08:00 7.6 °C -3.6 °C 1026.5 hPa West 14.5 km/h 33.8 km/h 45% 0.0 mm CLR
08:05 7.6 °C -3.7 °C 1026.5 hPa WNW 14.5 km/h 32.2 km/h 45% 0.0 mm CLR
08:10 7.4 °C -3.5 °C 1026.5 hPa WNW 16.1 km/h 25.7 km/h 46% 0.0 mm CLR
08:14 7.4 °C -3.5 °C 1026.5 hPa West 16.1 km/h 13.0 km/h 46% 0.0 mm CLR
08:20 7.3 °C -3.6 °C 1026.7 hPa West 12.2 km/h 27.8 km/h 46% 0.0 mm CLR
08:25 7.2 °C -3.7 °C 1026.7 hPa West 12.9 km/h 27.4 km/h 46% 0.0 mm CLR
08:30 7.2 °C -3.7 °C 1026.7 hPa West 11.1 km/h 18.5 km/h 46% 0.0 mm CLR
08:35 7.3 °C -3.6 °C 1026.5 hPa West 11.1 km/h 18.5 km/h 46% 0.0 mm CLR
08:40 7.4 °C -3.8 °C 1026.5 hPa SW 11.1 km/h 16.7 km/h 45% 0.0 mm CLR
08:45 7.5 °C -3.7 °C 1026.5 hPa West 11.3 km/h 25.7 km/h 45% 0.0 mm CLR
08:50 7.7 °C -3.8 °C 1026.5 hPa West 13.7 km/h 20.4 km/h 44% 0.0 mm CLR
08:55 7.8 °C -3.7 °C 1026.5 hPa WSW 12.9 km/h 20.9 km/h 44% 0.0 mm CLR
09:00 7.8 °C -3.7 °C 1026.5 hPa WSW 11.3 km/h 17.7 km/h 44% 0.0 mm CLR
09:05 7.9 °C -3.6 °C 1026.8 hPa WSW 11.1 km/h 16.7 km/h 44% 0.0 mm CLR
09:09 7.9 °C -3.6 °C 1026.8 hPa WSW 10.3 km/h 16.7 km/h 44% 0.0 mm CLR
09:15 8.0 °C -3.6 °C 1026.8 hPa SSW 10.3 km/h 16.7 km/h 44% 0.0 mm CLR
09:20 8.1 °C -3.7 °C 1026.9 hPa WSW 11.1 km/h 18.5 km/h 43% 0.0 mm CLR
09:25 8.1 °C -3.7 °C 1026.9 hPa WSW 11.1 km/h 18.5 km/h 43% 0.0 mm CLR
09:29 8.2 °C -3.7 °C 1026.9 hPa West 11.9 km/h 14.8 km/h 43% 0.0 mm CLR
09:35 8.4 °C -3.5 °C 1026.9 hPa West 11.3 km/h 19.3 km/h 43% 0.0 mm CLR
09:40 8.5 °C -3.7 °C 1026.9 hPa SW 9.5 km/h 15.6 km/h 42% 0.0 mm CLR
09:45 8.6 °C -3.6 °C 1026.9 hPa SW 9.7 km/h 14.5 km/h 42% 0.0 mm CLR
09:50 8.8 °C -3.4 °C 1027.1 hPa SSW 8.7 km/h 7.6 km/h 42% 0.0 mm CLR
09:55 8.9 °C -3.3 °C 1027.1 hPa WSW 9.7 km/h 11.3 km/h 42% 0.0 mm CLR
09:59 9.0 °C -3.6 °C 1027.1 hPa WNW 6.4 km/h 18.5 km/h 41% 0.0 mm CLR
10:05 9.0 °C -3.6 °C 1027.1 hPa WSW 8.0 km/h 17.7 km/h 41% 0.0 mm CLR
10:10 9.1 °C -3.5 °C 1027.1 hPa WSW 11.3 km/h 14.5 km/h 41% 0.0 mm CLR
10:15 9.2 °C -3.4 °C 1027.1 hPa WSW 11.3 km/h 14.5 km/h 41% 0.0 mm CLR
10:20 9.3 °C -3.6 °C 1027.1 hPa SW 8.4 km/h 5.6 km/h 40% 0.0 mm CLR
10:25 9.6 °C -3.7 °C 1027.1 hPa WSW 8.4 km/h 11.1 km/h 39% 0.0 mm CLR
10:30 9.6 °C -4.1 °C 1027.1 hPa SW 8.0 km/h 20.9 km/h 38% 0.0 mm CLR
10:35 9.8 °C -3.9 °C 1027.3 hPa WSW 8.0 km/h 19.3 km/h 38% 0.0 mm CLR
10:39 9.9 °C -4.1 °C 1027.3 hPa WNW 11.1 km/h 18.5 km/h 37% 0.0 mm CLR
10:44 10.1 °C -3.9 °C 1027.3 hPa West 11.1 km/h 18.5 km/h 37% 0.0 mm CLR
10:50 10.3 °C -3.8 °C 1027.2 hPa WNW 13.0 km/h 25.9 km/h 37% 0.0 mm CLR
10:55 10.3 °C -3.8 °C 1027.2 hPa WNW 12.9 km/h 29.0 km/h 37% 0.0 mm CLR
11:00 10.3 °C -4.2 °C 1027.2 hPa WNW 16.1 km/h 27.4 km/h 36% 0.0 mm CLR
11:05 10.4 °C -3.7 °C 1027.3 hPa WNW 16.1 km/h 27.4 km/h 37% 0.0 mm CLR
11:09 10.6 °C -3.5 °C 1027.3 hPa West 16.1 km/h 20.4 km/h 37% 0.0 mm CLR
11:15 10.8 °C -3.7 °C 1027.3 hPa WNW 16.1 km/h 20.9 km/h 36% 0.0 mm CLR
11:20 10.9 °C -4.0 °C 1027.4 hPa West 11.9 km/h 24.1 km/h 35% 0.0 mm CLR
11:25 11.1 °C -3.8 °C 1027.4 hPa WNW 11.9 km/h 22.2 km/h 35% 0.0 mm CLR
11:30 11.2 °C -3.7 °C 1027.4 hPa WNW 16.1 km/h 24.1 km/h 35% 0.0 mm CLR
11:35 11.4 °C -3.9 °C 1027.3 hPa WNW 16.1 km/h 24.1 km/h 34% 0.0 mm CLR
11:40 11.7 °C -3.7 °C 1027.3 hPa WNW 16.1 km/h 27.4 km/h 34% 0.0 mm CLR
11:45 11.8 °C -4.0 °C 1027.3 hPa NW 17.2 km/h 27.8 km/h 33% 0.0 mm CLR
11:50 12.0 °C -3.8 °C 1027.3 hPa WNW 14.5 km/h 29.0 km/h 33% 0.0 mm CLR
11:55 12.0 °C -4.2 °C 1027.3 hPa NW 15.6 km/h 27.8 km/h 32% 0.0 mm CLR
12:00 12.2 °C -4.0 °C 1027.3 hPa WNW 19.3 km/h 29.0 km/h 32% 0.0 mm CLR
12:05 12.4 °C -4.3 °C 1027.1 hPa West 18.0 km/h 29.6 km/h 31% 0.0 mm CLR
12:09 12.6 °C -4.1 °C 1027.1 hPa WNW 16.1 km/h 24.1 km/h 31% 0.0 mm CLR
12:15 12.8 °C -4.4 °C 1027.1 hPa WSW 16.1 km/h 20.4 km/h 30% 0.0 mm CLR
12:20 12.7 °C -4.4 °C 1027.1 hPa West 16.4 km/h 22.2 km/h 30% 0.0 mm CLR
12:25 12.8 °C -3.9 °C 1027.1 hPa West 16.1 km/h 22.5 km/h 31% 0.0 mm CLR
12:30 13.0 °C -4.2 °C 1027.1 hPa WNW 12.9 km/h 27.4 km/h 30% 0.0 mm CLR
12:35 13.1 °C -4.1 °C 1027.0 hPa WNW 12.9 km/h 27.4 km/h 30% 0.0 mm CLR
12:40 13.3 °C -4.4 °C 1027.0 hPa WNW 14.0 km/h 25.9 km/h 29% 0.0 mm CLR
12:45 13.4 °C -3.8 °C 1027.0 hPa WNW 14.5 km/h 22.5 km/h 30% 0.0 mm CLR
12:50 13.7 °C -4.1 °C 1026.7 hPa WNW 12.9 km/h 22.5 km/h 29% 0.0 mm CLR
12:55 13.7 °C -4.1 °C 1026.7 hPa WNW 12.9 km/h 22.5 km/h 29% 0.0 mm CLR
13:00 13.8 °C -4.4 °C 1026.7 hPa WNW 14.5 km/h 30.6 km/h 28% 0.0 mm CLR
13:04 14.1 °C -4.2 °C 1026.4 hPa West 14.0 km/h 24.1 km/h 28% 0.0 mm CLR
13:10 14.3 °C -4.0 °C 1026.4 hPa WNW 14.5 km/h 27.4 km/h 28% 0.0 mm CLR
13:15 14.4 °C -3.9 °C 1026.4 hPa WNW 14.5 km/h 22.5 km/h 28% 0.0 mm CLR
13:20 14.5 °C -3.8 °C 1026.1 hPa WNW 13.7 km/h 13.0 km/h 28% 0.0 mm CLR
13:25 14.7 °C -4.1 °C 1026.1 hPa WNW 13.7 km/h 16.7 km/h 27% 0.0 mm CLR
13:29 14.7 °C -4.1 °C 1026.1 hPa WSW 10.3 km/h 14.8 km/h 27% 0.0 mm CLR
13:35 14.6 °C -4.2 °C 1025.9 hPa SW 10.3 km/h 18.5 km/h 27% 0.0 mm CLR
13:40 14.6 °C -4.2 °C 1025.9 hPa SW 9.7 km/h 20.9 km/h 27% 0.0 mm CLR
13:45 14.6 °C -4.7 °C 1025.9 hPa SW 9.7 km/h 16.1 km/h 26% 0.0 mm CLR
13:50 14.7 °C -4.6 °C 1025.5 hPa WSW 9.7 km/h 16.1 km/h 26% 0.0 mm CLR
13:55 14.8 °C -4.6 °C 1025.5 hPa SSE 9.5 km/h 13.0 km/h 26% 0.0 mm CLR
14:00 15.1 °C -4.3 °C 1025.5 hPa SW 8.0 km/h 12.9 km/h 26% 0.0 mm CLR
14:05 14.9 °C -4.9 °C 1025.3 hPa WSW 8.0 km/h 16.1 km/h 25% 0.0 mm CLR
14:10 15.1 °C -4.3 °C 1025.3 hPa SW 6.9 km/h 11.1 km/h 26% 0.0 mm CLR
14:15 15.1 °C -4.8 °C 1025.3 hPa West 8.0 km/h 16.1 km/h 25% 0.0 mm CLR
14:20 15.3 °C -4.7 °C 1025.2 hPa WSW 6.9 km/h 13.0 km/h 25% 0.0 mm CLR
14:25 15.4 °C -4.6 °C 1025.2 hPa SW 8.0 km/h 14.5 km/h 25% 0.0 mm CLR
14:30 15.3 °C -4.7 °C 1025.2 hPa WSW 8.4 km/h 11.1 km/h 25% 0.0 mm CLR
14:35 15.2 °C -4.7 °C 1025.0 hPa SW 8.0 km/h 14.5 km/h 25% 0.0 mm CLR
14:40 15.2 °C -4.7 °C 1025.0 hPa SSE 7.6 km/h 14.8 km/h 25% 0.0 mm CLR
14:45 15.2 °C -4.7 °C 1025.0 hPa South 7.6 km/h 9.3 km/h 25% 0.0 mm CLR
14:50 15.3 °C -4.7 °C 1024.7 hPa SSW 9.7 km/h 9.7 km/h 25% 0.0 mm CLR
14:55 15.3 °C -4.7 °C 1024.7 hPa SSW 10.0 km/h 13.0 km/h 25% 0.0 mm CLR
15:00 15.3 °C -4.7 °C 1024.7 hPa South 8.0 km/h 19.3 km/h 25% 0.0 mm CLR
15:05 15.2 °C -4.7 °C 1024.6 hPa SSE 8.0 km/h 17.7 km/h 25% 0.0 mm CLR
15:10 15.2 °C -4.7 °C 1024.6 hPa SSW 11.9 km/h 14.8 km/h 25% 0.0 mm CLR
15:15 15.2 °C -5.3 °C 1024.6 hPa SSE 11.3 km/h 19.3 km/h 24% 0.0 mm CLR
15:20 15.3 °C -5.2 °C 1024.4 hPa SSE 11.9 km/h 16.7 km/h 24% 0.0 mm CLR
15:25 15.4 °C -5.1 °C 1024.4 hPa SSE 11.3 km/h 16.1 km/h 24% 0.0 mm CLR
15:29 15.6 °C -4.9 °C 1024.4 hPa SE 10.0 km/h 13.0 km/h 24% 0.0 mm CLR
15:35 15.8 °C -4.8 °C 1024.3 hPa SSE 9.7 km/h 12.9 km/h 24% 0.0 mm CLR
15:40 16.1 °C -5.1 °C 1024.3 hPa SE 8.4 km/h 11.1 km/h 23% 0.0 mm CLR
15:45 16.1 °C -5.1 °C 1024.3 hPa SW 8.4 km/h 11.1 km/h 23% 0.0 mm CLR
15:50 16.2 °C -5.0 °C 1024.3 hPa SE 7.6 km/h 7.4 km/h 23% 0.0 mm CLR
15:55 16.4 °C -4.8 °C 1024.3 hPa SSE 8.0 km/h 8.0 km/h 23% 0.0 mm CLR
16:00 16.7 °C -4.6 °C 1024.3 hPa SE 3.2 km/h 9.7 km/h 23% 0.0 mm CLR
16:05 16.8 °C -5.1 °C 1024.3 hPa West 3.9 km/h 9.3 km/h 22% 0.0 mm CLR
16:10 16.9 °C -5.0 °C 1024.3 hPa West 3.2 km/h 9.7 km/h 22% 0.0 mm CLR
16:15 17.1 °C -5.4 °C 1024.3 hPa West 4.7 km/h 5.6 km/h 21% 0.0 mm CLR
16:20 17.3 °C -4.7 °C 1024.2 hPa South 3.2 km/h 7.6 km/h 22% 0.0 mm CLR
16:25 17.3 °C -5.3 °C 1024.2 hPa SSE 3.2 km/h 9.3 km/h 21% 0.0 mm CLR
16:30 17.2 °C -5.4 °C 1024.2 hPa SSE 8.0 km/h 11.3 km/h 21% 0.0 mm CLR
16:35 17.1 °C -5.4 °C 1024.1 hPa SSE 6.4 km/h 9.3 km/h 21% 0.0 mm CLR
16:40 17.2 °C -5.3 °C 1024.1 hPa SSW 5.8 km/h 7.4 km/h 21% 0.0 mm CLR
16:45 17.2 °C -5.3 °C 1024.1 hPa SE 5.8 km/h 9.3 km/h 21% 0.0 mm CLR
16:50 17.3 °C -5.3 °C 1024.1 hPa ESE 5.0 km/h 9.3 km/h 21% 0.0 mm CLR
16:55 17.2 °C -5.3 °C 1024.1 hPa SE 4.8 km/h 9.7 km/h 21% 0.0 mm CLR
17:00 17.3 °C -5.2 °C 1024.1 hPa SE 4.8 km/h 9.7 km/h 21% 0.0 mm CLR
17:05 17.4 °C -5.2 °C 1024.1 hPa South 4.8 km/h 9.7 km/h 21% 0.0 mm CLR
17:10 17.6 °C -5.1 °C 1024.1 hPa South 4.8 km/h 9.7 km/h 21% 0.0 mm CLR
17:15 17.4 °C -5.2 °C 1024.1 hPa SE 4.8 km/h 9.7 km/h 21% 0.0 mm CLR
17:20 17.4 °C -5.2 °C 1024.1 hPa SE 3.2 km/h 9.7 km/h 21% 0.0 mm CLR
17:25 17.5 °C -5.7 °C 1024.1 hPa South 4.7 km/h 3.7 km/h 20% 0.0 mm CLR
17:30 17.7 °C -5.6 °C 1024.1 hPa South 3.2 km/h 3.7 km/h 20% 0.0 mm CLR
17:35 17.8 °C -5.5 °C 1024.1 hPa South 3.2 km/h 3.2 km/h 20% 0.0 mm CLR
17:40 17.9 °C -5.4 °C 1024.1 hPa Calm   11.3 km/h 20% 0.0 mm CLR
17:45 17.7 °C -4.9 °C 1024.1 hPa Calm   8.0 km/h 21% 0.0 mm CLR
17:50 17.4 °C -3.4 °C 1024.2 hPa East 3.9 km/h 11.1 km/h 24% 0.0 mm CLR
17:55 17.0 °C -3.2 °C 1024.2 hPa East 3.2 km/h 9.7 km/h 25% 0.0 mm CLR
18:00 16.5 °C -2.6 °C 1024.2 hPa ESE 4.8 km/h 14.5 km/h 27% 0.0 mm CLR
18:05 15.9 °C -2.6 °C 1024.3 hPa ESE 4.8 km/h 14.5 km/h 28% 0.0 mm CLR
18:10 15.4 °C -2.1 °C 1024.3 hPa ESE 8.7 km/h 13.0 km/h 30% 0.0 mm CLR
18:15 15.2 °C -1.8 °C 1024.3 hPa ESE 9.7 km/h 14.5 km/h 31% 0.0 mm CLR
18:20 15.1 °C -1.5 °C 1024.4 hPa ESE 9.5 km/h 11.1 km/h 32% 0.0 mm CLR
18:25 14.9 °C -1.3 °C 1024.4 hPa SE 9.5 km/h 10.3 km/h 33% 0.0 mm CLR
18:30 14.8 °C -0.9 °C 1024.4 hPa SE 7.6 km/h 10.0 km/h 34% 0.0 mm CLR
18:35 14.6 °C -0.7 °C 1024.3 hPa SE 7.6 km/h 11.1 km/h 35% 0.0 mm CLR
18:40 14.4 °C -0.8 °C 1024.3 hPa SE 8.0 km/h 11.3 km/h 35% 0.0 mm CLR
18:45 14.3 °C -0.6 °C 1024.3 hPa SSE 8.4 km/h 7.4 km/h 36% 0.0 mm CLR
18:50 14.2 °C -0.7 °C 1024.5 hPa SE 4.8 km/h 8.0 km/h 36% 0.0 mm CLR
18:55 14.2 °C -0.7 °C 1024.5 hPa ESE 5.8 km/h 7.4 km/h 36% 0.0 mm CLR
19:00 14.1 °C -0.8 °C 1024.5 hPa ESE 3.2 km/h 8.0 km/h 36% 0.0 mm CLR
19:05 14.0 °C -0.5 °C 1024.7 hPa ESE 3.2 km/h 8.0 km/h 37% 0.0 mm CLR
19:10 13.9 °C -0.6 °C 1024.7 hPa ESE 3.2 km/h 6.4 km/h 37% 0.0 mm CLR
19:15 13.8 °C -0.3 °C 1024.7 hPa ESE 3.2 km/h 3.2 km/h 38% 0.0 mm CLR
19:20 13.7 °C -0.4 °C 1024.8 hPa Calm   3.9 km/h 38% 0.0 mm CLR
19:25 13.6 °C -0.4 °C 1024.8 hPa Calm   3.7 km/h 38% 0.0 mm CLR
19:30 13.4 °C -0.3 °C 1024.8 hPa ESE 2.9 km/h 3.7 km/h 39% 0.0 mm CLR
19:35 13.4 °C -0.3 °C 1025.0 hPa ESE 2.9 km/h   39% 0.0 mm CLR
19:40 13.3 °C -0.4 °C 1025.0 hPa Calm     39% 0.0 mm CLR
19:45 13.2 °C -0.1 °C 1025.0 hPa Calm     40% 0.0 mm CLR
19:50 13.2 °C -0.1 °C 1025.2 hPa Calm   3.7 km/h 40% 0.0 mm CLR
19:55 13.1 °C 0.1 °C 1025.2 hPa Calm   3.7 km/h 41% 0.0 mm CLR
20:00 13.1 °C 0.4 °C 1025.2 hPa Calm   8.0 km/h 42% 0.0 mm CLR
20:05 12.9 °C 0.6 °C 1025.3 hPa Calm   5.6 km/h 43% 0.0 mm CLR
20:10 12.8 °C 0.2 °C 1025.3 hPa WSW 2.9 km/h 3.7 km/h 42% 0.0 mm CLR
20:15 12.8 °C 0.5 °C 1025.3 hPa WSW 3.2 km/h 3.2 km/h 43% 0.0 mm CLR
20:20 12.7 °C 1.6 °C 1025.5 hPa WSW 1.6 km/h 4.8 km/h 47% 0.0 mm CLR
20:25 12.5 °C 2.3 °C 1025.5 hPa WSW 1.6 km/h 6.4 km/h 50% 0.0 mm CLR
20:30 12.4 °C 2.8 °C 1025.5 hPa WSW 3.2 km/h 5.6 km/h 52% 0.0 mm CLR
20:35 12.3 °C 2.2 °C 1025.7 hPa SE 3.2 km/h 7.4 km/h 50% 0.0 mm CLR
20:40 12.3 °C 2.2 °C 1025.7 hPa SSE 3.2 km/h 9.7 km/h 50% 0.0 mm CLR
20:45 12.3 °C 2.7 °C 1025.7 hPa South 4.7 km/h 7.6 km/h 52% 0.0 mm CLR
20:50 12.2 °C 3.2 °C 1025.7 hPa ESE 6.4 km/h 11.1 km/h 54% 0.0 mm CLR
20:55 12.2 °C 2.9 °C 1025.7 hPa SSE 8.0 km/h 11.3 km/h 53% 0.0 mm CLR
21:00 12.1 °C 3.1 °C 1025.7 hPa SE 8.0 km/h 9.7 km/h 54% 0.0 mm CLR
21:05 12.0 °C 3.2 °C 1025.8 hPa SSE 8.0 km/h 11.3 km/h 55% 0.0 mm CLR
21:10 11.9 °C 3.4 °C 1025.8 hPa South 6.9 km/h 7.4 km/h 56% 0.0 mm CLR
21:15 11.9 °C 3.4 °C 1025.8 hPa South 8.0 km/h 8.0 km/h 56% 0.0 mm CLR
21:20 11.8 °C 3.3 °C 1025.9 hPa South 3.2 km/h 4.8 km/h 56% 0.0 mm CLR
21:25 11.6 °C 3.1 °C 1025.9 hPa South 3.2 km/h 3.2 km/h 56% 0.0 mm CLR
21:29 11.4 °C 2.9 °C 1025.9 hPa SSW 2.3 km/h 3.7 km/h 56% 0.0 mm CLR
21:35 11.1 °C 2.2 °C 1025.9 hPa SW 1.6 km/h 4.8 km/h 54% 0.0 mm CLR
21:40 10.8 °C 1.3 °C 1025.9 hPa NW 2.9 km/h 5.6 km/h 52% 0.0 mm CLR
21:45 10.7 °C 1.2 °C 1025.9 hPa NW 3.2 km/h 4.8 km/h 52% 0.0 mm CLR
21:50 10.4 °C 0.9 °C 1026.1 hPa NW 3.2 km/h 3.7 km/h 52% 0.0 mm CLR
21:55 10.2 °C 0.8 °C 1026.1 hPa NW 3.2 km/h 3.7 km/h 52% 0.0 mm CLR
22:00 10.1 °C 0.7 °C 1026.1 hPa NW 1.6 km/h 8.0 km/h 52% 0.0 mm CLR
22:05 10.0 °C 0.3 °C 1026.3 hPa NW 1.6 km/h 8.0 km/h 51% 0.0 mm CLR
22:10 9.8 °C 0.1 °C 1026.3 hPa NW 3.2 km/h 4.7 km/h 51% 0.0 mm CLR
22:15 9.7 °C 0.3 °C 1026.3 hPa NW 3.2 km/h 8.0 km/h 52% 0.0 mm CLR
22:20 9.7 °C 0.6 °C 1026.3 hPa NW 3.2 km/h 3.2 km/h 53% 0.0 mm CLR
22:25 9.6 °C 0.5 °C 1026.3 hPa NW 3.2 km/h   53% 0.0 mm CLR
22:30 9.6 °C 0.7 °C 1026.3 hPa Calm     54% 0.0 mm CLR
22:35 9.8 °C 1.1 °C 1026.3 hPa Calm   8.0 km/h 55% 0.0 mm CLR
22:40 9.8 °C 1.4 °C 1026.3 hPa SSE 3.2 km/h 9.7 km/h 56% 0.0 mm CLR
22:45 9.8 °C 1.7 °C 1026.3 hPa SSE 3.2 km/h 8.0 km/h 57% 0.0 mm CLR
22:50 9.7 °C 2.1 °C 1026.3 hPa SSE 4.7 km/h 5.6 km/h 59% 0.0 mm CLR
22:55 9.6 °C 1.9 °C 1026.3 hPa SSE 4.7 km/h 5.6 km/h 59% 0.0 mm CLR
23:00 9.4 °C 1.8 °C 1026.3 hPa SSE 3.2 km/h 8.0 km/h 59% 0.0 mm CLR
23:05 9.3 °C 2.4 °C 1026.3 hPa South 4.7 km/h 7.4 km/h 62% 0.0 mm CLR
23:10 9.3 °C 2.6 °C 1026.3 hPa South 4.8 km/h 11.3 km/h 63% 0.0 mm CLR
23:15 9.4 °C 2.9 °C 1026.3 hPa SSW 5.0 km/h 13.0 km/h 64% 0.0 mm CLR
23:20 9.7 °C 3.2 °C 1026.3 hPa SSW 7.6 km/h 13.0 km/h 64% 0.0 mm CLR
23:25 9.7 °C 3.4 °C 1026.3 hPa South 7.6 km/h 9.3 km/h 65% 0.0 mm CLR
23:30 9.7 °C 3.7 °C 1026.3 hPa SW 8.7 km/h 13.0 km/h 66% 0.0 mm CLR
23:35 9.5 °C 3.7 °C 1026.4 hPa SSW 9.7 km/h 11.3 km/h 67% 0.0 mm CLR
23:40 9.4 °C 3.6 °C 1026.4 hPa SW 8.7 km/h 11.1 km/h 67% 0.0 mm CLR
23:45 9.3 °C 3.5 °C 1026.4 hPa SSW 8.7 km/h 11.1 km/h 67% 0.0 mm CLR
23:50 9.2 °C 3.6 °C 1026.4 hPa SW 7.6 km/h 7.4 km/h 68% 0.0 mm CLR
23:55 9.2 °C 3.6 °C 1026.4 hPa SSW 7.6 km/h 7.4 km/h 68% 0.0 mm CLR
Murcia-Puente Tocinos, España
Compliments of Weather Underground - 2.5 mb

La estación de MeteoMurcia.com, publica sus datos en los siguientes proyectos:

Weather Underground PWS IMURCIAP2 Meteoclimatic www.awekas.at

W3Counter
Web Analytics